Weather in Nyaung-u

Myanmar     22°46′09″N   95°25′34″E
temp.,
°C
wind,
m/s
gust,
m/s
humid.,
%
clouds,
%
prec.,
mm/h
press.,
hPa
HPBL,
m
18 may, tue
tue1800:30+34n59356 0.0 1003311
03:30+31nne124180 0.0 100363
06:30+31nnw23405 0.0 1005167
09:30+37e23296 0.0 10061253
12:30+41ssw2322100 0.0 10032809
15:30+42sw441966 0.0 10002831
18:30+41wnw1221100 0.0 999169
21:30+38n4726100 0.0 1001291
19 may, wed
wed1900:30+34nne393691 0.0 1001338
03:30+33nnw1240100 0.1 100163
06:30+31se3549100 0.5 1004259
09:30+36s5543100 0.1 10051525
12:30+39s443198 0.1 10022568
15:30+41ssw442674 0.0 9992890
18:30+38nw343298 0.3 999312
21:30+35n584198 0.0 1001370
20 may, thu
thu2000:30+32n354865 0.1 1002314
03:30+30n2459100 1.0 1002172
06:30+31sse36567 1.3 1005524
09:30+35s554225 0.0 10061571
12:30+39s3333100 0.0 10032221
15:30+41w132640 0.0 9992930
18:30+40sw012786 0.0 998998
21:30+35nne474238 1.3 1001264
21 may, fri
fri2100:30+31n5105299 2.1 1002412
03:30+28ne247199 2.4 1002194
06:30+29e226685 4.6 1004276
09:30+34s444818 0.0 10051173
12:30+38ssw33375 0.0 10022012
15:30+41nne133018 0.0 9982693
18:30+40ese443058 0.0 998607
21:30+37ene11387 0.1 99934
22 may, sat
sat2200:30+35sse234213 0.2 99856
03:30+32ne4656100 0.1 1000354
06:30+33sse57528 0.9 10021129
09:30+35s66423 0.0 10031434
12:30+39sse33345 0.0 10012240
15:30+41sse332826 0.0 9973085
18:30+40e443063 0.0 996569
21:30+35wnw45455 0.1 1000340